FW0954 Weather Reports


Display with metric or nautical units.
time (UTC)temp
F
wind
direction
speed
MPH
gust
MPH
rain 1hr
in
rain 24hr
in
rain mn
in
humidity
%
barometer
mb
20260904094003 76 173 0.0 1.0 0.00 0.00 0.00 90 1013.6
20260904093503 76 173 0.0 1.0 0.00 0.00 0.00 89 1013.6
20260904092003 76 173 0.0 2.0 0.00 0.00 0.00 89 1013.6
20260904091503 76 173 0.0 2.0 0.00 0.00 0.00 89 1013.6
20260904091003 76 173 0.0 1.0 0.00 0.00 0.00 89 1013.6
20260904090502 76 173 0.0 1.0 0.00 0.00 0.00 88 1013.6
20260904085504 76 173 0.0 2.0 0.00 0.00 0.00 88 1013.5
20260904085003 76 173 0.0 1.0 0.00 0.00 0.00 88 1013.5
20260904084004 76 173 0.0 2.0 0.00 0.00 0.00 88 1013.6
20260904083503 76 173 0.0 2.0 0.00 0.00 0.00 88 1013.6
20260904083003 76 0 0.0 0.0 0.00 0.00 0.00 87 1013.5
20260904082003 77 173 0.0 2.0 0.00 0.00 0.00 87 1013.4
20260904081503 77 173 0.0 2.0 0.00 0.00 0.00 86 1013.5
20260904081003 77 172 0.0 2.0 0.00 0.00 0.00 86 1013.6
20260904080503 77 171 0.0 2.0 0.00 0.00 0.00 86 1013.6
20260904080004 77 171 0.0 2.0 0.00 0.00 0.00 86 1013.5
20260904075503 77 172 0.0 1.0 0.00 0.00 0.00 86 1013.4
20260904075004 77 171 0.0 2.0 0.00 0.00 0.00 85 1013.3
20260904074503 77 170 0.0 2.0 0.00 0.00 0.00 85 1013.2
20260904073003 77 159 0.0 1.0 0.00 0.00 0.00 85 1013.5
20260904072503 77 160 0.0 2.0 0.00 0.00 0.00 85 1013.6
20260904072003 77 156 0.0 2.0 0.00 0.00 0.00 84 1013.6
20260904071504 77 159 0.0 2.0 0.00 0.00 0.00 84 1013.6
20260904071003 77 168 0.0 2.0 0.00 0.00 0.00 84 1013.5
20260904070004 78 183 1.0 4.0 0.00 0.00 0.00 84 1013.5
20260904065504 78 184 1.0 4.0 0.00 0.00 0.00 84 1013.6
20260904065003 78 175 1.0 3.0 0.00 0.00 0.00 84 1013.7
20260904064504 78 178 1.0 3.0 0.00 0.00 0.00 83 1013.7
20260904064003 78 179 1.0 3.0 0.00 0.00 0.00 83 1013.7
20260904063503 78 175 1.0 4.0 0.00 0.00 0.00 83 1013.6
20260904063004 78 175 1.0 4.0 0.00 0.00 0.00 83 1013.6
20260904062503 78 172 0.0 2.0 0.00 0.00 0.00 83 1013.6
20260904062003 78 173 0.0 2.0 0.00 0.00 0.00 82 1013.6
20260904061504 78 173 0.0 2.0 0.00 0.00 0.00 82 1013.6
20260904061003 78 170 0.0 2.0 0.00 0.00 0.00 82 1013.7
20260904060503 78 177 0.0 2.0 0.00 0.00 0.00 82 1013.7
20260904060004 78 185 1.0 3.0 0.00 0.00 0.00 82 1013.6
20260904055504 78 190 1.0 3.0 0.00 0.00 0.00 81 1013.6
20260904055004 78 187 1.0 3.0 0.00 0.00 0.00 81 1013.7
20260904054504 78 183 1.0 3.0 0.00 0.00 0.00 81 1013.7
20260904054003 78 172 0.0 3.0 0.00 0.00 0.00 81 1013.6
20260904053504 78 191 0.0 3.0 0.00 0.00 0.00 81 1013.5
20260904053003 78 193 1.0 3.0 0.00 0.00 0.00 81 1013.5
20260904052501 78 171 1.0 3.0 0.00 0.00 0.00 80 1013.5
20260904052001 78 179 1.0 3.0 0.00 0.00 0.00 80 1013.6
20260904051501 78 194 0.0 3.0 0.00 0.00 0.00 80 1013.6
20260904051001 79 199 0.0 3.0 0.00 0.00 0.00 80 1013.6
20260904050501 79 199 0.0 3.0 0.00 0.00 0.00 80 1013.5
20260904050002 79 200 0.0 3.0 0.00 0.00 0.00 80 1013.6
20260904045502 79 201 0.0 3.0 0.00 0.00 0.00 79 1013.6
20260904045001 79 207 0.0 3.0 0.00 0.00 0.00 79 1013.6
20260904044501 79 187 1.0 3.0 0.00 0.00 0.00 79 1013.7
20260904042501 80 174 1.0 4.0 0.00 0.00 0.00 78 1013.7
20260904042001 80 170 1.0 4.0 0.00 0.00 0.00 78 1013.8
20260904041501 80 175 1.0 4.0 0.00 0.00 0.00 78 1013.8
20260904041001 80 174 1.0 4.0 0.00 0.00 0.00 77 1013.8
20260904040501 80 171 1.0 3.0 0.00 0.00 0.00 77 1013.7
20260904040002 80 182 1.0 3.0 0.00 0.00 0.00 77 1013.7
20260904035501 80 177 1.0 3.0 0.00 0.00 0.00 77 1013.7
20260904035001 80 176 1.0 3.0 0.00 0.00 0.00 77 1013.7
20260904034001 80 179 0.0 3.0 0.00 0.00 0.00 77 1013.6
20260904033001 81 166 1.0 4.0 0.00 0.00 0.00 76 1013.8
20260904032501 81 172 1.0 5.0 0.00 0.00 0.00 76 1013.8
20260904032001 81 175 2.0 5.0 0.00 0.00 0.00 76 1013.7
20260904030501 81 170 2.0 8.0 0.00 0.00 0.00 76 1013.7
20260904030002 81 171 2.0 8.0 0.00 0.00 0.00 76 1013.7
20260904025501 82 173 2.0 7.0 0.00 0.00 0.00 76 1013.6
20260904025001 82 170 2.0 7.0 0.00 0.00 0.00 76 1013.6
20260904024502 82 162 1.0 6.0 0.00 0.00 0.00 76 1013.5
20260904024002 82 165 1.0 6.0 0.00 0.00 0.00 76 1013.4
20260904023501 82 173 2.0 6.0 0.00 0.00 0.00 76 1013.2
20260904023001 82 171 1.0 7.0 0.00 0.00 0.00 76 1013.2
20260904022501 82 172 2.0 7.0 0.00 0.00 0.00 76 1012.9
20260904022001 82 181 2.0 7.0 0.00 0.00 0.00 76 1012.8
20260904021001 83 173 2.0 5.0 0.00 0.00 0.00 78 1012.7
20260904020501 83 173 2.0 5.0 0.00 0.00 0.00 78 1012.7
20260904020001 83 166 1.0 5.0 0.00 0.00 0.00 77 1012.7
20260904015501 83 165 2.0 5.0 0.00 0.00 0.00 76 1012.5
20260904015001 83 168 2.0 10.0 0.00 0.00 0.00 76 1012.5
20260904014501 84 167 2.0 10.0 0.00 0.00 0.00 75 1012.4
20260904014002 84 173 2.0 8.0 0.00 0.00 0.00 75 1012.4
20260904013501 84 175 3.0 6.0 0.00 0.00 0.00 75 1012.3
20260904013001 84 174 2.0 8.0 0.00 0.00 0.00 75 1012.3
20260904012502 84 173 2.0 8.0 0.00 0.00 0.00 75 1012.2
20260904012002 85 170 2.0 7.0 0.00 0.00 0.00 75 1012.1
20260904011501 85 169 2.0 8.0 0.00 0.00 0.00 74 1012.0
20260904011001 85 167 2.0 8.0 0.00 0.00 0.00 74 1012.0
20260904010001 86 177 3.0 7.0 0.00 0.00 0.00 74 1011.9
20260904004502 86 160 2.0 7.0 0.00 0.00 0.00 72 1012.0
20260904004001 86 162 2.0 8.0 0.00 0.00 0.00 72 1012.0
20260904003501 87 164 2.0 9.0 0.00 0.00 0.00 71 1012.0
20260904003001 87 163 2.0 9.0 0.00 0.00 0.00 70 1011.8
20260904002501 88 163 2.0 8.0 0.00 0.00 0.00 69 1011.9
20260904001501 88 161 2.0 7.0 0.00 0.00 0.00 68 1011.9
20260904001001 89 163 3.0 9.0 0.00 0.00 0.00 68 1011.8
20260904000502 89 160 4.0 9.0 0.00 0.00 0.00 67 1011.8
20260904000002 89 151 3.0 9.0 0.00 0.00 0.00 66 1011.8
20260903235501 90 156 3.0 7.0 0.00 0.00 0.00 65 1011.8
20260903235002 90 162 3.0 8.0 0.00 0.00 0.00 65 1011.7
20260903234502 90 154 3.0 8.0 0.00 0.00 0.00 65 1011.6
20260903234001 90 156 3.0 8.0 0.00 0.00 0.00 65 1011.7
20260903233501 90 160 3.0 8.0 0.00 0.00 0.00 65 1011.7
20260903233001 90 157 3.0 8.0 0.00 0.00 0.00 65 1011.6
20260903232501 91 159 2.0 8.0 0.00 0.00 0.00 65 1011.6
20260903232001 91 166 2.0 8.0 0.00 0.00 0.00 65 1011.5
20260903231501 90 164 3.0 10.0 0.00 0.00 0.00 66 1011.6
20260903231001 91 155 3.0 10.0 0.00 0.00 0.00 66 1011.6
20260903230501 91 157 3.0 9.0 0.00 0.00 0.00 66 1011.5
20260903230002 91 161 3.0 10.0 0.00 0.00 0.00 67 1011.6
20260903225002 91 153 3.0 9.0 0.00 0.00 0.00 67 1011.5
20260903224502 91 144 3.0 9.0 0.00 0.00 0.00 66 1011.5
20260903224001 92 157 3.0 9.0 0.00 0.00 0.00 65 1011.5
20260903223501 92 159 3.0 9.0 0.00 0.00 0.00 65 1011.5
20260903223002 92 138 2.0 7.0 0.00 0.00 0.00 64 1011.5
20260903222502 93 117 1.0 7.0 0.00 0.00 0.00 64 1011.4
20260903221501 93 156 2.0 6.0 0.00 0.00 0.00 63 1011.4
20260903221002 93 171 3.0 11.0 0.00 0.00 0.00 62 1011.4
20260903220502 92 176 4.0 11.0 0.00 0.00 0.00 62 1011.5
20260903220002 93 174 3.0 9.0 0.00 0.00 0.00 61 1011.5
20260903215501 93 161 2.0 7.0 0.00 0.00 0.00 62 1011.6
20260903215002 93 166 3.0 8.0 0.00 0.00 0.00 62 1011.7
20260903214502 93 160 3.0 8.0 0.00 0.00 0.00 62 1011.7
20260903214001 93 168 3.0 10.0 0.00 0.00 0.00 62 1011.8
20260903213001 94 174 2.0 10.0 0.00 0.00 0.00 61 1011.8
20260903212502 93 187 3.0 8.0 0.00 0.00 0.00 62 1011.8
20260903212002 93 190 3.0 8.0 0.00 0.00 0.00 62 1011.9
20260903211502 93 170 3.0 8.0 0.00 0.00 0.00 63 1011.9
20260903210502 92 179 3.0 11.0 0.00 0.00 0.00 64 1012.1
20260903205502 91 187 4.0 10.0 0.00 0.00 0.00 65 1012.2
20260903204502 91 179 4.0 10.0 0.00 0.00 0.00 65 1012.2
20260903204002 91 185 4.0 10.0 0.00 0.00 0.00 66 1012.3
20260903203502 90 184 4.0 12.0 0.00 0.00 0.00 66 1012.5
20260903203002 90 181 4.0 12.0 0.00 0.00 0.00 66 1012.5
20260903202002 90 191 4.0 11.0 0.00 0.00 0.00 67 1012.8
20260903201002 90 182 5.0 10.0 0.00 0.00 0.00 67 1012.7
20260903200502 89 184 4.0 10.0 0.00 0.00 0.00 69 1012.7
20260903200002 89 179 4.0 12.0 0.00 0.00 0.00 69 1012.8
20260903195502 88 165 4.0 12.0 0.00 0.00 0.00 69 1012.8
20260903195002 88 168 5.0 11.0 0.00 0.00 0.00 70 1012.8
20260903194002 87 178 5.0 11.0 0.00 0.00 0.00 71 1012.8
20260903193502 88 177 5.0 11.0 0.00 0.00 0.00 70 1012.9
20260903193002 87 174 5.0 11.0 0.00 0.00 0.00 71 1013.0
20260903192502 87 181 5.0 11.0 0.00 0.00 0.00 71 1013.2
20260903192002 87 184 5.0 11.0 0.00 0.00 0.00 71 1013.2
20260903191502 87 177 4.0 11.0 0.00 0.00 0.00 72 1013.4
20260903191002 86 171 4.0 11.0 0.00 0.00 0.00 72 1013.5
20260903190502 86 172 5.0 11.0 0.00 0.00 0.00 73 1013.6
20260903190002 86 186 5.0 12.0 0.00 0.00 0.00 73 1013.8
20260903185003 87 166 5.0 11.0 0.00 0.00 0.00 72 1013.8
20260903184502 87 167 5.0 11.0 0.00 0.00 0.00 72 1013.7
20260903184002 87 166 5.0 11.0 0.00 0.00 0.00 72 1013.8
20260903183501 87 172 5.0 12.0 0.00 0.00 0.00 73 1013.8
20260903183003 86 177 4.0 12.0 0.00 0.00 0.00 73 1013.8
20260903182501 86 179 4.0 11.0 0.00 0.00 0.00 75 1014.0
20260903182003 86 179 4.0 11.0 0.00 0.00 0.00 74 1013.9
20260903181503 85 177 5.0 12.0 0.00 0.00 0.00 75 1014.0
20260903181002 85 182 6.0 14.0 0.00 0.00 0.00 75 1014.0
20260903180503 85 184 5.0 14.0 0.00 0.00 0.00 76 1014.1
20260903180003 84 186 5.0 12.0 0.00 0.00 0.00 77 1014.2
20260903175503 84 186 6.0 12.0 0.00 0.00 0.00 78 1014.2
20260903175002 84 178 5.0 14.0 0.00 0.00 0.00 78 1014.3
20260903174502 84 171 5.0 14.0 0.00 0.00 0.00 78 1014.3
20260903174002 84 175 4.0 11.0 0.00 0.00 0.00 79 1014.3
20260903173502 83 176 4.0 11.0 0.00 0.00 0.00 79 1014.4
20260903172502 83 183 6.0 15.0 0.00 0.00 0.00 80 1014.6
20260903172003 82 182 6.0 16.0 0.00 0.00 0.00 81 1014.5
20260903171002 82 184 6.0 15.0 0.00 0.00 0.00 82 1014.5
20260903170003 82 179 5.0 14.0 0.00 0.00 0.00 83 1014.6
20260903165003 82 169 4.0 12.0 0.00 0.00 0.00 83 1014.5
20260903164503 82 164 4.0 13.0 0.00 0.00 0.00 83 1014.4
20260903164002 82 160 3.0 13.0 0.00 0.00 0.00 83 1014.4
20260903163002 82 170 4.0 12.0 0.00 0.00 0.00 84 1014.4
20260903162502 82 171 4.0 12.0 0.00 0.00 0.00 83 1014.4
20260903161503 82 177 3.0 8.0 0.00 0.00 0.00 83 1014.4
20260903161002 82 174 3.0 7.0 0.00 0.00 0.00 84 1014.3
20260903160502 82 176 3.0 8.0 0.00 0.00 0.00 84 1014.3
20260903160002 82 177 4.0 8.0 0.00 0.00 0.00 84 1014.2
20260903155502 82 174 3.0 9.0 0.00 0.00 0.00 84 1014.3
20260903155002 82 178 2.0 9.0 0.00 0.00 0.00 85 1014.2
20260903154502 82 175 3.0 9.0 0.00 0.00 0.00 86 1014.2
20260903154002 81 177 3.0 9.0 0.00 0.00 0.00 86 1014.1
20260903153002 81 177 4.0 10.0 0.00 0.00 0.00 87 1014.1
20260903152002 81 170 3.0 9.0 0.00 0.00 0.00 88 1014.2
20260903151002 80 169 3.0 9.0 0.00 0.00 0.00 88 1014.2
20260903150503 80 162 3.0 7.0 0.00 0.00 0.00 89 1014.2
20260903150002 80 161 2.0 6.0 0.00 0.00 0.00 89 1014.2
20260903145502 80 148 1.0 6.0 0.00 0.00 0.00 90 1014.2
20260903145003 80 150 2.0 6.0 0.00 0.00 0.00 90 1014.1
20260903144503 80 161 2.0 6.0 0.00 0.00 0.00 90 1014.2
20260903143502 80 169 2.0 9.0 0.00 0.00 0.00 90 1014.1
20260903143002 80 162 1.0 9.0 0.00 0.00 0.00 90 1014.1
20260903142503 80 159 2.0 8.0 0.00 0.00 0.00 90 1014.3
20260903141502 80 161 2.0 5.0 0.00 0.00 0.00 91 1014.2
20260903141002 80 167 2.0 7.0 0.00 0.00 0.00 92 1014.3
20260903140503 80 170 2.0 7.0 0.00 0.00 0.00 92 1014.3
20260903140003 79 172 1.0 5.0 0.00 0.00 0.00 93 1014.2
20260903135503 79 171 1.0 5.0 0.00 0.00 0.00 93 1014.3
20260903134503 79 166 2.0 6.0 0.00 0.00 0.00 93 1014.3
20260903133503 79 148 2.0 9.0 0.00 0.00 0.00 93 1014.2
20260903132502 79 159 2.0 8.0 0.00 0.00 0.00 93 1014.2
20260903132003 78 155 2.0 6.0 0.00 0.00 0.00 93 1014.2
20260903131002 78 132 1.0 4.0 0.00 0.00 0.00 93 1014.2
20260903130503 78 108 1.0 3.0 0.00 0.00 0.00 93 1014.1
20260903130003 78 185 1.0 4.0 0.00 0.00 0.00 93 1014.0
20260903125502 78 159 1.0 4.0 0.00 0.00 0.00 93 1013.8
20260903124502 78 161 2.0 6.0 0.00 0.00 0.00 93 1013.9
20260903124003 78 162 2.0 6.0 0.00 0.00 0.00 93 1013.8
20260903123503 78 160 1.0 5.0 0.00 0.00 0.00 94 1013.9
20260903123003 78 152 1.0 4.0 0.00 0.00 0.00 94 1014.0
20260903122002 77 166 1.0 4.0 0.00 0.00 0.00 94 1013.8
20260903121502 77 172 1.0 5.0 0.00 0.00 0.00 94 1013.8
20260903121003 77 164 1.0 6.0 0.00 0.00 0.00 94 1013.7
20260903120503 77 160 2.0 6.0 0.00 0.00 0.00 94 1013.7
20260903120002 77 160 2.0 5.0 0.00 0.00 0.00 94 1013.7
20260903115503 77 162 1.0 7.0 0.00 0.00 0.00 94 1013.7
20260903115003 77 167 1.0 7.0 0.00 0.00 0.00 94 1013.6
20260903114502 77 167 2.0 6.0 0.00 0.00 0.00 94 1013.5
20260903114003 77 172 1.0 4.0 0.00 0.00 0.00 94 1013.5
20260903112003 77 172 1.0 4.0 0.00 0.00 0.00 94 1013.5
20260903111503 77 169 0.0 2.0 0.00 0.00 0.00 94 1013.5
20260903111002 77 167 0.0 3.0 0.00 0.00 0.00 94 1013.5
20260903110503 77 161 0.0 3.0 0.00 0.00 0.00 94 1013.5
20260903110002 77 150 0.0 2.0 0.00 0.00 0.00 94 1013.5
20260903105003 77 169 0.0 1.0 0.00 0.00 0.00 94 1013.4
20260903104003 77 165 1.0 4.0 0.00 0.00 0.00 94 1013.4
20260903103503 77 166 1.0 4.0 0.00 0.00 0.00 94 1013.4
20260903103002 77 164 1.0 4.0 0.00 0.00 0.00 94 1013.3
20260903102503 76 163 0.0 3.0 0.00 0.00 0.00 94 1013.3
20260903102002 76 169 0.0 2.0 0.00 0.00 0.00 94 1013.3
20260903101003 76 168 0.0 3.0 0.00 0.00 0.00 94 1013.2
20260903100503 76 169 0.0 2.0 0.00 0.00 0.00 94 1013.2
20260903095003 76 173 1.0 5.0 0.00 0.00 0.00 93 1013.4